Regional Weather Roundup
Issued by NWS Charleston, SC

Home | Current Version | Previous Version | Text Only | Print | Product List | Glossary On
Versions: 1 2 3 4 5 6 7 8 9 10 11 12 13 14 15 16 17 18 19 20 21 22 23 24 25 26 27 28 29 30 31 32 33 34 35 36 37 38 39 40 41 42 43 44 45 46 47 48 49 50
000
ASUS42 KCHS 080427
RWRCHS

REGIONAL WEATHER ROUNDUP
NATIONAL WEATHER SERVICE CHARLESTON SC
1200 AM EDT WED JUL 08 2015

NOTE: "FAIR" INDICATES FEW OR NO CLOUDS BELOW 12,000 FEET WITH NO
SIGNIFICANT WEATHER AND/OR OBSTRUCTIONS TO VISIBILITY.

NOT ALL STATIONS ARE QUALITY CONTROLLED BY THE NATIONAL
WEATHER SERVICE. USE DATA WITH CAUTION...ESPECIALLY
DEWPOINT OBSERVATIONS.

SCZ027-030-031-034>040-042>050-080500-
...SOUTHEAST SOUTH CAROLINA...

CITY           SKY/WX    TMP DP  RH WIND       PRES   REMARKS
N CHARLESTON   PTCLDY    77  74  90 SW5       30.16R
WATERFRONT PAR   N/A     81  76  85 SW5       30.13R
MOUNT PLEASANT LGT RAIN  79  75  89 SW5       30.16S
JOHNS ISLAND   FAIR      81  75  83 SW3       30.16S
PINOPOLIS      NOT AVBL
MONCKS CORNER  FAIR      77  73  88 CALM      30.16R
SUMMERVILLE    FAIR      75  75 100 CALM      30.16S
BEAUFORT MCAS  PTCLDY    78  74  87 S5        30.16R
BEAUFORT ARPT  FAIR      79  73  83 CALM      30.16S
HILTON HEAD IS CLEAR     77  73  88 S5        30.17S
WALTERBORO     PTCLDY    73  72  94 SW3       30.16S
ALLENDALE      FAIR      77  72  83 CALM      30.14F

...SOUTHERN MIDLANDS AND PEE DEE...

CITY           SKY/WX    TMP DP  RH WIND       PRES   REMARKS
GEORGETOWN     NOT AVBL
KINGSTREE      NOT AVBL
ORANGEBURG     PTCLDY    75  70  84 S3        30.15S
BARNWELL       FAIR      79  72  78 SW5       30.16S
AIKEN          NOT AVBL
MANNING        FAIR      77  70  78 SW5       30.15S
COLUMBIA       PTCLDY    80  70  71 SW8       30.13S
SUMTER         PTCLDY    77  71  82 S8        30.13S
FLORENCE       PTCLDY    77  72  84 SW7       30.14R
MYRTLE BEACH   CLEAR     81  73  78 SW6       30.17S
N MYRTLE BEACH PTCLDY    80  76  87 SW10      30.15S

$$

GAZ063-065-086>088-099>101-113>116-118-119-134>141-150-080500-
...SOUTHEAST GEORGIA...

CITY           SKY/WX    TMP DP  RH WIND       PRES   REMARKS
SAVANNAH ARPT  MOCLDY    75  71  87 SW3       30.17R
HUNTER AAF     PTCLDY    76  73  89 SW3       30.14S
FORT STEWART   PTCLDY    73  70  88 S3        30.15S
STATESBORO     NOT AVBL
SYLVANIA       PTCLDY    77  73  88 CALM      30.17S
CLAXTON        FAIR      72  72 100 CALM      30.16S

...CSRA...CENTRAL AND FAR SOUTHEAST GEORGIA...

CITY           SKY/WX    TMP DP  RH WIND       PRES   REMARKS
THOMSON        PTCLDY    78  76  94 CALM      30.19S
AUGUSTA-BUSH   PTCLDY    77  72  84 S3        30.14R
AUGUSTA-DANIEL PTCLDY    80  71  74 SE5       30.16R
SWAINSBORO     FAIR      79  73  83 S3        30.16F
VIDALIA        PTCLDY    77  70  78 S5        30.16F
EASTMAN        FAIR      78  78  99 CALM      30.18R
HAZLEHURST     FAIR      78  73  84 S3        30.15S
ALMA           CLEAR     76  72  87 S5        30.16F
WAYCROSS       PTCLDY    77  75  92 CALM      30.16F
JESUP          FAIR      73  73 100 CALM      30.16F
BAXLEY         FAIR      77  72  83 CALM      30.16S
BRUNSWICK      PTCLDY    73  72  94 CALM      30.18S
SAINT SIMONS   PTCLDY    77  72  84 SW7       30.17R

$$

SCZ027-028-034-036>038-045-046-048>050-GAZ119-141-080500-
...LAKE AND SUPPLEMENTAL COASTAL OBSERVATIONS...

STATION/POSITION TIME  TEMP    WIND        PRES    WAVE   SWELL
                       AIR SEA DIR/SP/G            HT/PER HT/PER/DIR
                 (UTC) (F)     (DEG/KT/KT) (MB)    (FT/S) (FT/S/D)
UPR LAKE MARION  NOT AVBL
WINYAH BAY       0345   79     220/  4     1020.0S
LAKE MURRAY      0300   82     200/  9/ 12 1019.6R
ACE BASIN NERRS  NOT AVBL
FORT PULASKI     0400   79 84  210/  5/  7 1021.8S
SAPELO ISLAND    0400   78     200/  5     1022.0R

$$

ANZ835-935-AMZ111-154-330-350-352-354-370-450-454-472-080500-
...C-MAN AND BUOY OBSERVATIONS...

STATION/POSITION TIME  TEMP    WIND        PRES    WAVE   SWELL
                       AIR SEA DIR/SP/G            HT/PER HT/PER/DIR
                 (UTC) (F)     (DEG/KT/KT) (MB)    (FT/S) (FT/S/D)
BUOY 41004       0350   83 83  210/ 14/ 16 1021.0R   3/ 8   2/ 8
BUOY 41008       0350   79 79  200/  8/ 10 1021.6S   2/ 8   2/100/ 8
FOLLY BEACH CMAN 0400   81     220/ 12/ 15 1021.3R
CAPERS NEARSHORE 0308   81     230/ 14/ 17 1021.1R
FRIPP NEARSHORE  0300   81     230/ 14/ 16 1020.8R


STATION/POSITION TIME  TEMP    WIND        PRES    WAVE   SWELL
                       AIR SEA DIR/SP/G            HT/PER HT/PER/DIR
                 (UTC) (F)     (DEG/KT/KT) (MB)    (FT/S) (FT/S/D)
5E ST. MARYS GA  0321      78                N/A     2/ 9
FRYING PAN BUOY  0350   82 80  210/ 10/ 12 1021.7R   3/ 8   2/120/ 8
BUOY 41025       0350   81 83  230/ 16/ 19 1020.7R   3/ 9   2/140/ 9
CAPE LOOKOUT NC  0400   80     210/ 10/ 14 1020.9R
BUOY 41002       0350   82 81  200/ 10/ 12 1023.2F   4/ 8   3/130/ 8
BUOY 41010       0320   83 83  150/  4/  4 1022.4R
ST AUGUSTINE FL  0400   76 73  150/  2/  2 1022.7S


$$



USA.gov is the U.S. government's official web portal to all federal, state and local government web resources and services.